Temperature
17 18 18 18 19 18 18 17 17 18 18 19 18 18 18 19 19 19 19 19 19 19 19 19 19 19 19 18 18 18 17 17 17 17 17 17 16 16 16 15 15 15 15 15
17 18 18 18 18 18 18 18 18 18 18 18 18 18 18 18 18 18 19 19 19 19 20 20 20 19 19 19 18 18 18 18 17 17 17 17 16 16 16 16 15 15 15 15
15 17 18 17 18 18 18 18 18 18 18 17 17 17 17 18 18 18 19 20 20 20 20 20 20 20 20 19 19 18 18 18 18 17 17 17 17 16 16 16 15 15 15 15
14 16 16 17 17 17 17 17 17 17 17 16 16 17 18 18 18 18 19 20 20 20 21 21 20 20 20 19 19 18 18 18 18 17 17 17 17 16 16 16 15 15 15 15
13 15 16 17 17 16 16 16 16 16 16 16 16 17 18 18 18 18 19 20 21 21 21 21 21 20 20 19 19 19 18 18 18 18 17 17 17 17 16 16 16 16 15 15
13 15 15 16 16 16 16 16 16 15 15 15 15 16 16 18 18 19 20 20 21 21 21 21 21 20 19 19 19 19 19 19 18 18 18 17 17 17 17 16 16 16 15 15
13 14 15 15 15 16 16 16 15 15 14 14 14 15 16 17 17 18 19 20 20 20 20 20 20 20 20 20 20 20 19 19 18 18 18 17 17 17 17 16 16 15 15 15
13 14 15 15 15 15 15 15 15 14 15 14 15 15 15 16 17 18 18 19 20 20 20 20 20 20 20 20 20 19 19 18 18 18 18 17 17 16 16 16 15 15 15 15
13 13 14 14 14 15 15 14 14 14 15 15 14 14 15 15 16 17 17 18 19 19 19 19 19 19 19 20 19 19 18 18 18 17 17 17 17 16 16 16 15 15 15 15
12 13 13 14 14 14 14 14 14 14 14 14 14 14 14 15 15 16 17 17 17 18 18 18 18 18 19 19 18 18 18 17 17 17 16 16 16 16 15 15 15 15 15 15
12 13 13 14 14 14 14 14 14 14 14 14 14 14 14 14 14 15 15 16 16 16 17 17 17 17 17 17 17 17 17 17 17 16 16 15 15 15 15 15 15 15 14 14
12 12 12 13 13 13 13 13 13 13 13 13 13 13 13 13 13 14 14 14 15 15 15 15 16 16 16 16 16 16 16 16 16 15 15 15 15 14 14 14 14 14 14 13
13 13 13 13 13 13 13 13 13 12 12 12 12 13 13 12 13 13 13 14 14 14 14 14 14 14 15 15 15 15 15 15 15 15 14 14 14 14 14 13 13 13 13 13
13 13 12 12 12 12 13 12 12 12 12 12 12 12 12 12 12 12 12 12 13 13 13 13 13 13 14 14 14 14 14 14 14 14 14 14 13 13 13 13 13 12 12 12
13 13 12 12 12 12 12 12 12 12 12 11 12 12 11 12 11 11 11 12 12 12 12 12 13 12 13 13 13 13 13 13 13 13 13 13 13 13 12 12 12 12 11 11
12 12 12 12 12 12 12 12 11 11 11 11 11 11 11 11 11 11 11 12 12 12 12 12 12 12 12 12 13 12 12 12 12 12 12 12 12 12 12 11 11 11 11 11
12 12 12 12 12 12 12 11 11 11 11 11 11 11 11 11 11 11 11 11 11 11 11 11 11 11 11 12 12 12 11 11 11 11 11 11 11 11 11 10 10 10 10 10
12 12 12 12 12 12 11 11 11 11 11 11 11 11 11 11 10 10 11 11 11 11 11 10 10 11 11 11 11 11 11 11 11 10 10 10 10 10 10 10 9 9 9 9
12 12 12 12 12 11 11 11 11 11 11 11 11 11 11 10 10 10 10 10 10 10 10 10 10 10 10 10 10 10 10 10 10 10 10 9 9 9 9 9 9 8 8 8
11 11 11 11 11 11 11 11 11 11 11 11 11 11 10 10 10 10 10 10 10 10 10 10 10 10 10 10 10 10 10 9 9 9 9 9 9 8 8 8 8 8 8 8
11 11 11 11 11 11 11 11 11 11 11 11 11 10 10 10 10 10 10 9 9 9 9 9 9 9 9 9 9 9 9 9 8 8 8 8 8 8 8 7 7 7 7 7
10 10 10 10 10 11 11 11 11 11 11 10 10 10 10 10 10 10 9 9 9 9 9 9 9 8 8 8 8 8 8 8 8 8 8 8 7 7 7 7 7 6 6 6
10 10 10 10 10 10 10 10 10 10 10 10 10 10 10 10 10 9 9 9 9 9 9 8 8 8 8 8 8 8 7 7 7 7 7 7 7 7 6 6 6 6 6 5
10 10 10 10 10 10 10 10 10 10 10 10 10 10 10 9 9 9 9 8 8 8 8 8 8 7 7 7 7 7 7 7 7 6 6 6 6 6 6 5 5 5 5 5
10 10 10 10 10 10 10 10 10 10 10 9 9 9 9 9 9 8 8 8 8 8 8 7 7 7 7 7 6 6 6 6 6 6 6 6 5 5 5 5 5 4 4 4
10 10 10 10 10 10 10 10 9 9 9 9 9 9 8 8 8 8 8 8 7 7 7 7 7 6 6 6 6 6 5 5 5 5 5 5 4 4 4 4 4 4 4 3
9 9 9 9 9 9 9 9 9 9 9 8 8 8 8 8 7 7 7 7 7 6 6 6 6 6 5 5 5 5 5 5 4 4 4 4 4 4 4 3 3 3 3 3
Wind_Speed
4 5 3 5 6 6 7 8 8 8 8 10 7 6 5 5 5 6 7 9 12 13 13 13 13 13 13 12 12 12 12 12 11 10 9 9 9 9 9 9 10 9 9 8
2 4 4 5 7 7 8 6 8 7 9 6 5 3 3 4 5 7 9 11 12 13 14 14 15 14 14 13 13 13 13 13 11 10 10 10 10 9 9 9 8 9 9 9
3 3 2 5 7 7 5 5 6 8 7 4 4 5 4 4 4 7 8 9 11 13 15 15 16 15 15 15 13 13 13 12 12 12 12 11 11 10 10 10 8 8 9 9
2 0 5 7 2 2 4 5 5 4 4 4 5 6 4 3 3 4 5 7 9 10 12 13 13 13 13 13 14 14 13 13 12 12 12 11 11 11 10 8 9 9 9 10
3 3 6 4 1 0 2 4 2 3 5 6 6 4 3 2 2 3 4 5 7 9 10 11 12 13 13 13 14 14 14 14 13 13 13 12 12 11 10 9 9 8 7 9
3 3 5 4 2 3 1 4 2 2 4 5 4 2 4 5 6 6 4 2 3 5 6 9 11 13 14 14 14 15 15 14 13 13 13 13 13 11 8 8 9 9 8 8
3 4 5 3 4 2 2 5 3 3 4 4 2 4 5 6 7 5 4 2 1 4 6 7 9 12 14 14 15 14 12 11 12 12 13 12 10 8 8 8 8 8 7 7
3 3 5 3 2 2 5 4 4 4 4 3 4 4 5 5 6 6 6 5 2 3 4 4 8 11 11 11 10 9 10 10 11 11 11 10 10 9 8 9 8 8 7 6
5 5 4 3 3 5 4 5 5 4 3 2 3 4 4 4 5 6 6 5 4 4 5 4 6 9 9 7 7 9 9 9 9 9 8 9 10 10 8 7 7 7 6 6
2 5 4 4 4 4 3 3 3 2 2 1 1 2 4 4 5 6 7 6 6 6 7 6 5 6 6 6 8 8 8 8 7 8 7 7 6 7 7 7 7 6 6 6
3 4 5 5 5 4 4 4 4 4 4 3 3 4 5 5 7 7 7 7 7 7 7 6 6 6 5 6 8 8 7 6 6 6 7 6 5 5 6 5 6 7 6 6
3 3 1 3 5 6 6 5 4 5 6 7 6 6 7 8 8 8 8 8 9 9 9 8 8 8 6 5 7 8 6 5 5 5 5 5 5 4 4 4 6 6 5 5
2 0 1 1 4 6 6 6 6 6 7 8 8 9 10 9 9 10 10 10 10 10 9 9 9 9 7 6 7 8 7 6 5 4 5 5 5 5 4 3 5 4 3 3
0 2 2 2 3 4 6 7 8 9 10 9 10 10 10 11 11 12 11 10 10 11 11 11 11 10 8 7 8 8 7 7 6 5 4 4 4 4 4 4 3 2 3 2
3 3 3 3 3 4 5 7 9 10 10 10 10 11 11 11 12 11 10 10 11 13 12 12 12 10 8 9 10 9 7 5 5 5 5 5 4 4 4 4 4 3 2 2
4 5 6 6 6 6 7 9 10 9 9 10 10 10 10 10 11 11 11 11 12 12 11 11 11 9 9 10 10 9 7 10 8 6 6 5 5 5 4 4 4 3 2 1
4 4 5 6 6 7 7 8 9 8 9 10 10 9 10 11 11 11 11 11 11 11 10 11 9 8 9 10 9 7 7 7 10 7 6 5 5 5 4 4 3 2 1 1
3 3 4 5 6 7 8 9 9 8 8 8 9 10 10 10 9 8 8 9 11 12 11 9 9 9 10 9 7 6 7 6 6 6 6 6 5 5 4 4 3 3 2 2
7 7 6 7 7 7 7 7 7 7 7 8 9 9 8 8 7 8 8 10 11 10 8 8 11 10 9 9 9 7 7 8 7 6 6 6 6 5 4 3 3 2 2 2
8 8 8 8 8 8 7 7 7 7 6 7 9 9 8 7 7 7 9 8 5 3 4 6 8 8 7 8 9 7 7 7 6 5 5 5 4 4 3 3 2 2 2 2
9 9 9 8 8 8 7 7 7 7 6 7 8 8 7 6 6 6 7 6 5 5 6 8 7 6 6 7 8 6 6 6 5 4 4 4 3 3 3 3 3 2 2 3
8 8 8 8 9 8 6 6 7 7 7 7 7 7 7 7 6 6 5 3 2 5 5 5 5 6 7 8 6 6 6 5 4 4 3 3 3 3 2 2 2 2 2 2
7 7 7 7 7 6 6 6 6 7 7 7 6 6 6 4 4 4 3 2 3 5 5 4 5 8 9 6 5 5 5 5 4 4 3 3 3 2 2 2 2 2 2 3
6 6 6 5 6 7 7 6 6 6 6 6 5 5 5 4 3 3 2 3 5 6 5 5 7 8 8 5 5 5 4 4 3 3 3 3 3 3 3 3 3 3 3 4
6 6 6 7 7 5 5 5 7 7 6 5 5 5 4 3 3 2 3 4 5 6 5 5 7 7 5 4 4 4 4 4 3 3 3 3 3 3 3 3 3 3 3 4
7 6 6 6 4 4 4 5 5 4 4 5 4 4 4 4 4 4 4 4 5 5 4 3 4 4 4 4 4 4 4 4 4 3 3 3 3 3 3 3 3 3 3 3
7 6 6 6 5 4 4 4 4 4 3 3 3 3 3 3 4 4 4 4 4 4 3 3 3 3 3 3 4 3 3 3 3 3 3 3 3 3 3 3 3 3 3 4
Wind_Direction
224 236 221 228 243 217 206 203 209 238 239 263 269 266 258 228 206 190 190 191 191 191 189 186 183 183 185 187 182 178 177 183 187 184 180 177 177 179 178 182 187 186 185 190
262 249 242 254 255 238 232 227 232 253 266 265 281 285 276 241 206 200 200 200 197 194 189 190 190 189 186 186 184 179 183 188 183 177 178 182 182 180 180 186 185 183 189 192
243 277 311 260 242 229 220 220 208 231 250 298 313 315 310 284 232 213 212 206 200 198 196 194 193 189 189 187 180 181 187 187 183 181 184 187 186 181 187 189 186 190 197 196
196 50 229 245 266 231 217 250 232 243 283 284 273 288 291 284 262 248 226 213 208 205 203 196 190 187 182 177 179 184 188 189 186 185 188 185 183 187 191 188 192 198 202 204
156 211 265 286 295 335 229 266 254 266 297 303 305 316 324 352 337 273 255 234 216 205 202 189 184 178 173 178 182 187 192 192 190 186 185 185 189 193 191 190 197 201 200 204
155 192 233 252 304 324 125 271 260 273 297 312 337 325 300 343 331 317 308 262 227 192 174 177 178 169 173 181 185 193 195 192 186 184 186 190 193 191 186 189 200 200 206 207
186 220 258 282 310 345 187 255 309 292 282 291 260 236 277 316 328 328 330 321 187 150 162 175 167 166 177 184 193 195 186 179 179 183 187 188 186 183 180 187 193 198 205 210
165 207 255 319 348 217 244 288 300 291 276 265 267 281 302 327 342 351 3 9 46 124 136 143 153 163 174 187 188 171 167 175 181 183 184 184 177 179 180 184 193 201 202 210
194 219 258 287 264 281 273 273 283 286 288 262 276 295 323 350 358 4 14 26 43 88 96 103 133 150 163 172 154 152 158 169 174 173 176 175 175 178 180 185 193 199 201 209
259 272 286 297 300 307 302 270 294 312 324 334 307 339 9 21 25 26 27 35 46 73 87 88 103 126 138 133 136 140 154 164 163 163 166 165 166 171 176 181 187 194 198 204
264 289 319 337 338 340 359 20 44 41 39 33 54 48 43 44 41 41 41 40 51 66 78 82 89 91 94 110 126 135 142 145 146 153 155 154 152 157 169 178 184 186 198 196
236 251 235 323 355 25 40 46 50 56 51 47 58 64 61 58 52 51 52 53 58 62 67 69 75 75 67 86 116 125 126 127 133 138 140 144 141 121 90 121 137 153 164 167
227 340 122 52 29 37 47 45 51 70 75 69 62 65 68 64 58 58 57 60 65 68 69 69 69 66 62 75 95 107 115 120 121 125 133 140 141 145 137 90 78 92 125 149
107 93 82 63 55 49 62 60 63 69 70 72 71 68 67 66 62 58 55 57 66 70 69 68 66 56 50 71 85 91 96 100 106 112 119 124 130 136 141 137 122 72 59 107
53 77 111 95 78 70 72 75 73 74 77 74 71 70 66 66 64 58 52 56 64 65 63 65 63 52 49 71 79 81 84 85 91 96 99 103 108 110 110 113 114 108 87 70
75 74 80 74 73 74 78 79 79 76 79 80 75 71 70 70 67 59 53 56 64 62 57 59 56 46 53 67 72 72 75 83 88 92 91 93 97 102 105 108 111 114 116 105
98 91 89 85 80 79 82 86 86 82 81 81 80 79 77 77 71 63 56 56 63 61 57 58 53 47 55 64 72 75 76 78 80 83 85 90 93 94 99 103 107 106 91 81
95 107 116 116 110 98 87 85 86 85 86 89 87 83 80 79 77 68 59 60 61 55 47 46 52 55 55 57 67 72 74 72 72 74 74 76 79 81 84 87 90 87 63 48
87 92 93 94 94 95 94 93 90 86 86 88 87 82 79 77 73 68 63 60 59 54 32 37 51 56 55 56 67 71 75 76 73 70 70 71 70 69 72 75 70 61 51 39
80 87 91 90 86 89 90 90 88 82 82 91 90 83 75 70 71 71 68 61 49 44 35 48 56 57 54 53 63 70 73 75 75 72 70 70 70 65 60 59 56 42 27 13
79 83 86 88 85 82 81 87 89 83 79 89 95 93 87 76 71 72 71 60 23 33 52 57 59 56 55 60 64 67 68 69 69 68 67 66 64 58 50 44 36 25 10 355
79 81 81 82 83 77 69 74 85 90 86 86 88 92 87 77 71 66 60 66 44 54 62 61 62 65 65 68 70 69 66 66 64 63 62 61 59 53 45 38 27 10 1 351
79 82 82 80 84 82 70 68 77 87 88 87 88 91 91 87 82 84 62 22 54 72 72 67 69 70 70 68 68 67 63 58 54 52 52 50 50 45 35 26 15 -0 351 348
81 82 82 82 85 82 73 65 73 81 85 82 77 82 91 87 62 51 91 71 68 75 76 73 71 70 71 69 66 62 57 53 51 50 48 47 47 45 39 30 20 8 1 356
79 79 78 80 80 80 82 81 78 73 74 69 59 53 58 79 95 75 73 76 75 76 76 69 68 68 67 66 60 55 49 45 44 43 40 38 35 31 24 16 9 2 356 351
74 73 71 73 79 83 84 87 85 77 80 73 55 47 49 55 71 73 73 75 72 71 69 62 59 61 62 60 56 50 44 38 36 37 36 33 28 22 11 5 2 356 347 340
69 66 66 61 53 59 76 87 91 81 80 91 77 45 51 61 69 71 70 69 67 65 62 57 54 54 54 56 56 51 46 41 36 31 26 22 16 10 4 356 348 344 342 341
Height
1454 1451 1451 1451 1450 1451 1455 1456 1461 1453 1449 1439 1435 1434 1432 1432 1433 1435 1437 1440 1442 1445 1449 1454 1458 1463 1468 1473 1478 1483 1487 1492 1496 1501 1505 1510 1513 1517 1521 1524 1527 1530 1532 1534
1454 1449 1449 1450 1446 1446 1447 1447 1448 1447 1443 1433 1432 1431 1430 1430 1430 1431 1433 1435 1439 1442 1446 1450 1454 1459 1464 1469 1474 1479 1483 1488 1493 1497 1502 1506 1510 1514 1517 1520 1523 1526 1528 1531
1462 1452 1451 1455 1445 1443 1442 1440 1442 1444 1438 1433 1432 1430 1429 1428 1427 1428 1429 1431 1434 1438 1441 1445 1450 1455 1459 1465 1470 1475 1480 1485 1489 1494 1498 1502 1506 1510 1513 1516 1519 1522 1525 1527
1464 1460 1464 1448 1437 1436 1438 1437 1435 1435 1433 1433 1432 1429 1428 1427 1426 1425 1427 1428 1431 1434 1437 1441 1446 1451 1456 1461 1466 1471 1476 1481 1485 1490 1494 1498 1502 1505 1509 1512 1515 1518 1520 1523
1465 1464 1455 1444 1437 1437 1439 1438 1434 1434 1433 1431 1430 1427 1426 1425 1424 1424 1424 1425 1427 1430 1433 1437 1442 1447 1452 1457 1462 1467 1471 1476 1480 1485 1490 1494 1497 1501 1504 1508 1510 1513 1516 1518
1462 1461 1460 1445 1436 1434 1437 1440 1433 1432 1432 1431 1430 1432 1428 1425 1423 1422 1422 1423 1424 1426 1429 1433 1437 1443 1448 1452 1457 1461 1466 1471 1476 1481 1485 1489 1492 1496 1500 1503 1506 1509 1511 1513
1458 1457 1450 1439 1436 1435 1445 1440 1432 1431 1430 1430 1430 1429 1427 1423 1422 1420 1420 1420 1421 1423 1425 1429 1433 1438 1443 1447 1451 1456 1462 1467 1471 1475 1479 1483 1488 1492 1495 1498 1502 1504 1506 1509
1457 1457 1452 1437 1436 1438 1437 1432 1430 1429 1428 1428 1427 1426 1423 1421 1420 1418 1417 1418 1419 1420 1422 1425 1429 1434 1438 1443 1448 1453 1458 1462 1466 1471 1475 1479 1482 1486 1490 1493 1496 1498 1500 1503
1449 1448 1439 1436 1436 1434 1432 1430 1429 1427 1426 1426 1425 1424 1422 1420 1418 1417 1416 1416 1417 1418 1420 1423 1426 1430 1435 1440 1445 1449 1454 1458 1462 1466 1470 1474 1477 1480 1485 1488 1490 1492 1495 1497
1444 1440 1436 1435 1434 1432 1430 1428 1427 1426 1425 1424 1423 1422 1420 1419 1418 1417 1417 1416 1417 1419 1420 1423 1426 1429 1433 1438 1442 1446 1450 1454 1458 1462 1466 1469 1472 1476 1480 1483 1486 1488 1490 1492
1442 1438 1435 1433 1432 1430 1429 1427 1426 1426 1425 1424 1423 1422 1421 1420 1419 1419 1418 1418 1419 1420 1422 1424 1426 1429 1433 1437 1441 1444 1448 1451 1455 1458 1462 1465 1469 1472 1475 1478 1481 1484 1486 1488
1441 1437 1437 1436 1433 1431 1429 1428 1427 1426 1425 1425 1425 1424 1423 1422 1422 1421 1421 1422 1422 1423 1424 1426 1428 1430 1434 1437 1440 1443 1446 1450 1453 1457 1460 1464 1466 1470 1472 1475 1478 1481 1483 1485
1437 1437 1437 1436 1435 1433 1431 1430 1429 1428 1428 1428 1428 1427 1426 1426 1426 1425 1425 1425 1425 1426 1428 1429 1431 1432 1435 1438 1440 1443 1447 1450 1453 1456 1459 1462 1464 1467 1470 1473 1475 1477 1479 1481
1437 1437 1437 1436 1437 1436 1435 1433 1432 1431 1431 1431 1431 1431 1431 1430 1430 1430 1430 1430 1431 1431 1432 1433 1434 1436 1439 1441 1443 1446 1448 1450 1453 1456 1459 1462 1464 1466 1469 1471 1472 1474 1477 1479
1437 1437 1438 1437 1437 1437 1437 1437 1436 1435 1435 1436 1436 1436 1436 1436 1436 1436 1437 1437 1437 1437 1438 1438 1439 1441 1444 1445 1447 1449 1450 1452 1454 1457 1459 1461 1464 1465 1467 1469 1471 1473 1474 1476
1438 1439 1439 1439 1439 1439 1440 1440 1439 1440 1440 1441 1441 1441 1442 1442 1442 1443 1443 1443 1443 1443 1444 1444 1445 1447 1448 1448 1450 1452 1453 1455 1457 1458 1460 1462 1464 1465 1467 1469 1470 1472 1473 1474
1440 1440 1441 1441 1442 1442 1443 1443 1444 1445 1445 1446 1447 1447 1448 1448 1449 1449 1450 1450 1450 1449 1450 1451 1452 1453 1453 1454 1455 1456 1457 1458 1459 1460 1461 1462 1463 1465 1467 1468 1470 1471 1472 1472
1442 1442 1443 1444 1444 1445 1446 1448 1449 1450 1451 1452 1452 1453 1453 1454 1455 1456 1456 1455 1455 1455 1456 1457 1457 1458 1458 1459 1459 1460 1460 1461 1461 1462 1463 1464 1464 1465 1467 1468 1469 1469 1470 1470
1443 1444 1446 1447 1448 1449 1450 1452 1453 1455 1456 1457 1457 1458 1459 1460 1460 1461 1461 1460 1460 1460 1462 1462 1463 1463 1463 1463 1463 1463 1463 1463 1464 1464 1465 1466 1466 1466 1467 1468 1468 1468 1468 1468
1446 1447 1448 1450 1451 1452 1454 1456 1457 1459 1460 1461 1462 1463 1464 1464 1465 1465 1465 1465 1465 1466 1467 1467 1467 1467 1466 1466 1466 1465 1465 1465 1466 1466 1466 1467 1467 1467 1467 1467 1467 1467 1467 1467
1449 1450 1452 1453 1454 1456 1458 1459 1461 1462 1464 1465 1466 1467 1467 1468 1469 1469 1469 1469 1470 1470 1470 1470 1470 1469 1469 1468 1468 1468 1468 1467 1467 1467 1467 1467 1467 1467 1466 1466 1466 1466 1465 1465
1453 1454 1455 1457 1458 1460 1461 1463 1464 1466 1467 1468 1469 1470 1471 1471 1472 1472 1473 1473 1473 1473 1473 1472 1472 1472 1471 1471 1470 1470 1469 1469 1468 1468 1467 1467 1466 1466 1466 1465 1465 1464 1463 1463
1457 1458 1460 1461 1462 1464 1465 1466 1468 1469 1470 1471 1472 1473 1473 1474 1474 1475 1475 1475 1475 1475 1475 1474 1474 1473 1473 1472 1471 1470 1470 1469 1468 1468 1467 1466 1466 1465 1464 1464 1463 1462 1461 1460
1461 1462 1464 1465 1466 1467 1468 1470 1471 1472 1473 1474 1475 1475 1476 1476 1476 1477 1477 1476 1476 1476 1476 1475 1475 1474 1473 1472 1471 1471 1470 1469 1468 1467 1466 1465 1464 1464 1463 1462 1461 1460 1458 1457
1464 1466 1467 1468 1469 1470 1471 1472 1473 1474 1475 1476 1477 1477 1477 1478 1477 1477 1477 1477 1477 1476 1476 1475 1475 1474 1473 1472 1471 1470 1469 1468 1467 1466 1465 1464 1463 1462 1461 1460 1458 1457 1455 1454
1467 1468 1469 1470 1472 1473 1474 1475 1475 1476 1477 1477 1478 1478 1478 1478 1478 1478 1477 1477 1476 1476 1475 1475 1474 1473 1472 1471 1470 1469 1468 1467 1466 1464 1463 1462 1461 1460 1459 1457 1456 1454 1452 1450
1470 1471 1472 1473 1474 1475 1476 1476 1477 1478 1478 1478 1478 1479 1478 1478 1478 1477 1477 1476 1476 1475 1474 1474 1473 1472 1471 1470 1469 1468 1467 1466 1464 1463 1462 1461 1459 1458 1456 1455 1453 1451 1450 1448